Location: Riverton
(43.0250°N, 108.3790°W)
Time: 15:07:49
(UTC-07:00)

Amateur Radio Satellites - All Passes

Search period start: 18 January 2017 14:37
Search period end: 19 January 2017 14:37
Location: Riverton, 43.0250°N, 108.3790°W

Satellite Date Start Highest point End Downlink Frequencies (MHz)
Time Altitude Azimuth
Cosmos 2491 18 Jan 14:39:06 14:47:18 46° 272° (W) 14:55:31 435.465 / 435.565
MOZHAYETS 4 18 Jan 14:42:15 14:44:53 15° 90° (E) 14:47:29
YUBILEINY 18 Jan 14:45:57 14:54:47 87° 96° (E) 15:03:41 435.215
UKube-1 18 Jan 14:50:05 14:51:10 11° 301° (WNW) 14:52:14 .
TISAT 1 18 Jan 14:50:29 14:53:59 26° 292° (WNW) 14:57:27 437.305
AO-85 18 Jan 14:57:09 15:01:51 71° 305° (NW) 15:06:13 145.980
AO-7 18 Jan 14:59:09 15:07:31 81° 253° (WSW) 15:15:58 29.400- 29.500
Gurwin Techsat 1B 18 Jan 15:04:42 15:06:17 11° 272° (W) 15:07:53 435.225
AIST 1 18 Jan 15:20:35 15:24:06 23° 287° (WNW) 15:27:37
O/OREOS (USA 219) 18 Jan 15:21:29 15:24:27 17° 53° (NE) 15:27:22 437.305
ITUPSAT 1 18 Jan 15:27:06 15:31:52 65° 287° (WNW) 15:36:38 437.325
Cosmos 2504 18 Jan 15:27:30 15:36:17 89° 86° (E) 15:44:33 435.465 / 435.565
KKS-1 18 Jan 15:37:42 15:40:34 17° 92° (E) 15:43:25 437.445
M-CUBED/EXP-1 PRIME 18 Jan 15:40:07 15:42:04 14° 98° (E) 15:43:57 437.505
ITAMSAT 1 18 Jan 15:43:28 15:47:23 22° 267° (W) 15:51:20 435.822/435.867
HORYU 2 18 Jan 15:46:49 15:49:51 19° 64° (ENE) 15:52:54 437.375
BRITE-PL 18 Jan 15:47:02 15:52:24 44° 70° (ENE) 15:57:43 437.365/2234.400
CUSAT 1 18 Jan 15:53:17 15:59:49 29° 275° (W) 16:06:06 437.405
BEESAT 3 18 Jan 15:53:19 15:55:11 13° 110° (ESE) 15:57:04 437.485
NOAA 15 18 Jan 15:59:36 16:01:49 13° 56° (ENE) 16:04:02 137.62
GOMX 1 18 Jan 16:03:14 16:07:41 27° 66° (ENE) 16:11:59 467.674
BEESAT 18 Jan 16:03:44 16:07:51 29° 293° (WNW) 16:11:57 436.000
SO-50 18 Jan 16:04:39 16:08:21 24° 43° (NE) 16:12:01 436.795
SWISSCUBE 18 Jan 16:05:17 16:09:13 26° 295° (WNW) 16:13:09 437.505
AUBIESAT-1 18 Jan 16:17:42 16:20:50 34° 103° (ESE) 16:23:52 437.475
MOZHAYETS 4 18 Jan 16:17:50 16:22:25 59° 287° (WNW) 16:26:58
DANDE 18 Jan 16:20:18 16:27:29 46° 268° (W) 16:35:19 436.750
BEESAT 2 18 Jan 16:32:50 16:35:11 15° 110° (ESE) 16:37:34 435.950
STARS 18 Jan 16:36:07 16:40:01 31° 97° (E) 16:43:55 437.465
CUTE-I 18 Jan 16:37:44 16:42:00 26° 64° (ENE) 16:46:18 437.470
AO-85 18 Jan 16:41:03 16:42:58 12° 324° (NW) 16:44:50 145.980
YUBILEINY 18 Jan 16:46:27 16:52:49 21° 299° (WNW) 16:59:15 435.215
DOVE 4 18 Jan 16:53:14 16:57:35 30° 69° (ENE) 17:01:45 437.250
AO-7 18 Jan 16:56:40 17:01:29 16° 271° (W) 17:06:21 29.400- 29.500
CUBESAT XI-V 18 Jan 16:57:42 17:02:21 57° 100° (E) 17:06:57 437.345
HO-68 18 Jan 16:58:09 17:01:50 15° 50° (NE) 17:05:30 435.675
O/OREOS (USA 219) 18 Jan 16:59:48 17:04:14 58° 251° (WSW) 17:08:39 437.305
NOAA 18 18 Jan 17:07:08 17:11:43 28° 64° (ENE) 17:16:18 137.9125
KKS-1 18 Jan 17:13:08 17:17:23 47° 289° (WNW) 17:21:37 437.445
M-CUBED/EXP-1 PRIME 18 Jan 17:13:40 17:16:43 30° 295° (WNW) 17:19:38 437.505
Cubesat XI-IV 18 Jan 17:19:05 17:24:17 57° 71° (ENE) 17:29:30 437.490
HORYU 2 18 Jan 17:21:50 17:26:03 45° 260° (W) 17:30:19 437.375
Cosmos 2504 18 Jan 17:24:41 17:30:42 20° 297° (WNW) 17:36:32 435.465 / 435.565
BRITE-PL 18 Jan 17:26:05 17:30:56 29° 267° (W) 17:35:48 437.365/2234.400
BEESAT 3 18 Jan 17:28:29 17:32:19 57° 307° (NW) 17:36:13 437.485
NOAA 15 18 Jan 17:35:28 17:40:45 84° 73° (ENE) 17:46:06 137.62
LilacSat-2 18 Jan 17:37:22 17:41:08 88° 257° (WSW) 17:44:56 437.200
GOMX 1 18 Jan 17:40:20 17:45:30 44° 262° (W) 17:50:31 467.674
SO-50 18 Jan 17:44:43 17:49:03 48° 241° (WSW) 17:53:20 436.795
CANX-2 18 Jan 17:50:05 17:52:44 16° 64° (ENE) 17:55:24 2200.000
AUBIESAT-1 18 Jan 17:53:05 17:54:59 14° 301° (WNW) 17:56:52 437.475
Cosmos 2499 18 Jan 18:00:40 18:03:13 12° 75° (ENE) 18:05:44 435.465 / 435.565
SEEDS 18 Jan 18:06:00 18:08:14 14° 63° (ENE) 18:10:27 437.485
BEESAT 2 18 Jan 18:08:44 18:12:34 50° 308° (NW) 18:16:29 435.950
STARS 18 Jan 18:12:40 18:16:14 25° 294° (WNW) 18:19:49 437.465
COMPASS 1 18 Jan 18:16:05 18:17:40 12° 62° (ENE) 18:19:14 437.405
CUTE-I 18 Jan 18:16:44 18:21:47 45° 261° (W) 18:26:53 437.470
AAUSAT CUBESAT 2 18 Jan 18:29:12 18:31:02 13° 62° (ENE) 18:32:52 437.432
DOVE 4 18 Jan 18:30:41 18:35:12 32° 264° (W) 18:39:31 437.250
CUBESAT XI-V 18 Jan 18:36:17 18:39:16 17° 297° (WNW) 18:42:13 437.345
CINEMA 3 18 Jan 18:36:46 18:41:14 77° 75° (ENE) 18:45:32 145.822/145.860
HO-68 18 Jan 18:41:08 18:48:16 68° 70° (ENE) 18:55:26 435.675
UWE-3 18 Jan 18:43:47 18:45:53 14° 63° (ENE) 18:47:59 435.000/436.395/437.385
NOAA 18 18 Jan 18:46:57 18:52:10 43° 261° (W) 18:57:24 137.9125
CUTE 1.7 + AOD 2 18 Jan 18:55:06 18:59:19 68° 75° (ENE) 19:03:34 437.475
Cubesat XI-IV 18 Jan 19:00:58 19:04:42 19° 268° (W) 19:08:28 437.490
ZACube-1 18 Jan 19:06:52 19:09:10 15° 63° (ENE) 19:11:29 437.345
NOAA 15 18 Jan 19:19:01 19:21:11 12° 272° (W) 19:23:22 137.62
CANX-2 18 Jan 19:24:04 19:28:11 49° 261° (W) 19:32:21 2200.000
STRAND 1 18 Jan 19:31:06 19:36:13 62° 101° (ESE) 19:41:19 437.568
GONETS M04 18 Jan 19:33:30 19:41:36 46° 88° (E) 19:49:46
SEEDS 18 Jan 19:39:17 19:43:26 58° 260° (W) 19:47:38 437.485
CUBEBUG 2 18 Jan 19:45:06 19:49:18 82° 259° (W) 19:53:28 437.445
Oscar 11 18 Jan 19:45:10 19:49:00 32° 70° (ENE) 19:52:53 145.826/435.025
Cosmos 2499 18 Jan 19:46:31 19:54:55 67° 93° (E) 20:02:44 435.465 / 435.565
COMPASS 1 18 Jan 19:48:28 19:52:37 69° 259° (WSW) 19:56:51 437.405
AIST 2 18 Jan 19:48:44 19:52:33 38° 117° (ESE) 19:56:27 435.215
AAUSAT CUBESAT 2 18 Jan 20:01:50 20:05:58 64° 260° (W) 20:10:09 437.432
DELFI C3 18 Jan 20:02:46 20:05:22 17° 65° (ENE) 20:07:58 145.870
UWE-3 18 Jan 20:17:49 20:21:54 55° 260° (W) 20:25:58 435.000/436.395/437.385
FUNcube-1 18 Jan 20:18:54 20:23:01 81° 76° (ENE) 20:27:11 145.935
HO-68 18 Jan 20:30:59 20:36:32 24° 268° (W) 20:42:07 435.675
CUTE 1.7 + AOD 2 18 Jan 20:34:29 20:35:37 11° 272° (W) 20:36:45 437.475
ZACube-1 18 Jan 20:41:01 20:45:02 51° 260° (W) 20:49:06 437.345
HUMSAT D 18 Jan 21:08:48 21:12:44 48° 73° (ENE) 21:16:45 437.325/437.525
STRAND 1 18 Jan 21:11:28 21:14:54 18° 299° (WNW) 21:18:20 437.568
UNISAT 6 18 Jan 21:17:54 21:20:20 14° 91° (E) 21:22:47 437.425
Oscar 11 18 Jan 21:21:43 21:25:10 23° 266° (W) 21:28:39 145.826/435.025
AIST 2 18 Jan 21:27:43 21:31:09 25° 315° (NW) 21:34:38 435.215
PRISM 18 Jan 21:27:53 21:31:58 56° 101° (E) 21:35:58 437.425
GONETS M04 18 Jan 21:30:23 21:38:28 41° 288° (WNW) 21:46:39
TIGRISAT 18 Jan 21:31:17 21:34:24 19° 93° (E) 21:37:33 435.000
ESTCUBE 1 18 Jan 21:32:13 21:34:41 15° 61° (ENE) 21:37:09 437.505/2401.250
JAS-2 18 Jan 21:34:21 21:37:39 13° 86° (E) 21:41:03 435.910
DELFI C3 18 Jan 21:36:02 21:39:50 41° 262° (W) 21:43:41 145.870
BY70-1 18 Jan 21:39:16 21:41:37 21° 68° (ENE) 21:44:06 436.1900
Cosmos 2499 18 Jan 21:41:45 21:48:35 27° 292° (WNW) 21:55:05 435.465 / 435.565
ANTELSAT 18 Jan 21:45:30 21:49:18 28° 96° (E) 21:53:09 437.575/2403.000
AO-85 18 Jan 21:48:30 21:50:58 16° 40° (NE) 21:53:25 145.980
DX 1 18 Jan 22:31:26 22:32:33 11° 59° (ENE) 22:33:39 434.975-435.025
SPROUT 18 Jan 22:34:02 22:36:37 16° 64° (ENE) 22:39:14 437.525
CUBEBUG 1 18 Jan 22:40:53 22:45:01 41° 71° (ENE) 22:49:09 437.445
HUMSAT D 18 Jan 22:46:26 22:48:39 14° 270° (W) 22:50:53 437.325/437.525
50 SAT 18 Jan 22:46:49 22:49:21 19° 67° (ENE) 22:51:54 437.505
AISAT 18 Jan 22:52:31 22:56:35 36° 70° (ENE) 23:00:40 437.250
UNISAT 6 18 Jan 22:53:02 22:57:21 56° 287° (WNW) 23:01:46 437.425
ISS 18 Jan 22:59:24 23:02:32 49° 142° (SE) 23:05:42 145.825
PRISM 18 Jan 23:04:39 23:06:47 14° 298° (WNW) 23:08:53 437.425
ESTCUBE 1 18 Jan 23:06:28 23:10:57 64° 258° (WSW) 23:15:29 437.505/2401.250
TIGRISAT 18 Jan 23:07:06 23:11:16 43° 288° (WNW) 23:15:30 435.000
QB50P1 18 Jan 23:07:49 23:10:59 20° 94° (E) 23:14:09 145.935-145.965
BY70-1 18 Jan 23:09:50 23:11:57 18° 267° (W) 23:14:11 436.1900
POLYITAN 1 18 Jan 23:11:14 23:14:36 22° 94° (E) 23:17:56 437.675
QB50P2 18 Jan 23:12:19 23:15:48 24° 95° (E) 23:19:16 145.880/145.840
JAS-2 18 Jan 23:16:27 23:23:33 73° 103° (ESE) 23:31:16 435.910
RS-15 18 Jan 23:21:45 23:32:54 51° 110° (ESE) 23:44:28 29.354- 29.394
ANTELSAT 18 Jan 23:22:09 23:25:58 29° 291° (WNW) 23:29:50 437.575/2403.000
VELOX 1 18 Jan 23:25:34 23:30:01 77° 74° (ENE) 23:34:29 145.980
AO-85 18 Jan 23:27:54 23:31:46 62° 239° (WSW) 23:35:37 145.980
POPSAT HIP 1 18 Jan 23:33:58 23:37:55 38° 98° (E) 23:41:51 437.405
DUCHIFAT 1 18 Jan 23:47:00 23:51:02 46° 99° (E) 23:55:04 145.980
NANOSAT C BR1 18 Jan 23:51:31 23:55:40 57° 101° (E) 23:59:49 145.865
DX 1 19 Jan 00:03:40 00:08:03 84° 255° (WSW) 00:12:28 434.975-435.025
UKube-1 19 Jan 00:06:23 00:10:42 77° 75° (ENE) 00:15:02 .
TISAT 1 19 Jan 00:07:26 00:10:46 24° 67° (ENE) 00:14:06 437.305
BEESAT 3 19 Jan 00:07:57 00:10:18 15° 39° (NE) 00:12:39 437.485
SPROUT 19 Jan 00:08:01 00:12:09 50° 260° (W) 00:16:18 437.525
CUBEBUG 1 19 Jan 00:18:15 00:21:27 19° 267° (W) 00:24:39 437.445
50 SAT 19 Jan 00:19:15 00:22:22 28° 263° (W) 00:25:32 437.505
BUGSAT 1 19 Jan 00:28:53 00:32:47 47° 100° (E) 00:36:42 437.445
AISAT 19 Jan 00:29:40 00:33:08 22° 266° (W) 00:36:36 437.250
ISS 19 Jan 00:36:14 00:39:09 29° 339° (NNW) 00:42:04 145.825
QB50P1 19 Jan 00:43:00 00:46:51 35° 290° (WNW) 00:50:41 145.935-145.965
POLYITAN 1 19 Jan 00:46:39 00:50:25 32° 290° (WNW) 00:54:12 437.675
QB50P2 19 Jan 00:47:54 00:51:35 29° 291° (WNW) 00:55:16 145.880/145.840
BEESAT 2 19 Jan 00:48:38 00:51:19 17° 41° (NE) 00:54:00 435.950
PCSat 19 Jan 00:49:02 00:54:09 45° 113° (ESE) 00:59:19 145.827
YUBILEINY 19 Jan 00:55:16 01:03:43 46° 73° (ENE) 01:12:02 435.215
ITUPSAT 1 19 Jan 00:58:28 01:01:50 20° 63° (ENE) 01:05:14 437.325
JAS-2 19 Jan 01:02:32 01:08:01 25° 299° (WNW) 01:13:53 435.910
VELOX 1 19 Jan 01:06:19 01:06:59 10° 271° (W) 01:07:40 145.980
POPSAT HIP 1 19 Jan 01:10:23 01:13:26 20° 294° (WNW) 01:16:29 437.405
Cosmos 2504 19 Jan 01:20:11 01:26:44 32° 69° (ENE) 01:33:02 435.465 / 435.565
DUCHIFAT 1 19 Jan 01:23:41 01:26:22 17° 296° (WNW) 01:29:02 145.980
AIST 1 19 Jan 01:25:27 01:29:45 86° 261° (W) 01:34:00
NANOSAT C BR1 19 Jan 01:28:44 01:30:55 14° 297° (WNW) 01:33:07 145.865
BEESAT 19 Jan 01:32:58 01:37:25 41° 69° (ENE) 01:41:53 436.000
RS-15 19 Jan 01:33:34 01:45:19 57° 315° (NW) 01:57:30 29.354- 29.394
SWISSCUBE 19 Jan 01:34:18 01:38:50 47° 70° (ENE) 01:43:25 437.505
Oscar 19 19 Jan 01:35:12 01:40:21 60° 101° (ESE) 01:45:25 437.125/150
Gurwin Techsat 1B 19 Jan 01:35:52 01:40:39 33° 96° (E) 01:45:25 435.225
TISAT 1 19 Jan 01:42:33 01:46:15 30° 263° (W) 01:49:58 437.305
BEESAT 3 19 Jan 01:44:24 01:48:25 75° 238° (WSW) 01:52:23 437.485
Cosmos 2491 19 Jan 01:44:37 01:52:43 45° 87° (E) 02:00:50 435.465 / 435.565
MOZHAYETS 4 19 Jan 01:45:13 01:48:04 17° 63° (ENE) 01:50:57
BUGSAT 1 19 Jan 02:05:27 02:07:46 15° 296° (WNW) 02:10:07 437.445
ISS 19 Jan 02:14:04 02:16:23 18° 360° (N) 02:18:40 145.825
PHONESAT 2.4 19 Jan 02:14:31 02:14:43 10° 154° (SSE) 02:14:55 2401.200-2431.200
ITAMSAT 1 19 Jan 02:15:50 02:18:53 16° 91° (E) 02:21:56 435.822/435.867
BEESAT 2 19 Jan 02:25:29 02:29:30 64° 239° (WSW) 02:33:29 435.950
M-CUBED/EXP-1 PRIME 19 Jan 02:25:29 02:29:20 31° 65° (ENE) 02:32:58 437.505
PCSat 19 Jan 02:32:59 02:37:43 30° 312° (NW) 02:42:30 145.827
ITUPSAT 1 19 Jan 02:34:41 02:39:18 50° 260° (W) 02:43:57 437.325
KKS-1 19 Jan 02:36:43 02:39:48 19° 64° (ENE) 02:42:53 437.445
YUBILEINY 19 Jan 02:52:21 03:00:23 41° 274° (W) 03:08:21 435.215
AO-7 19 Jan 03:00:16 03:07:35 32° 96° (E) 03:14:48 29.400- 29.500
AUBIESAT-1 19 Jan 03:03:07 03:07:23 61° 69° (ENE) 03:11:23 437.475
BEESAT 19 Jan 03:11:40 03:15:20 22° 266° (W) 03:19:02 436.000
CUSAT 1 19 Jan 03:12:52 03:17:39 52° 92° (E) 03:23:53 437.405
Cosmos 2504 19 Jan 03:13:18 03:20:21 48° 271° (W) 03:27:07 435.465 / 435.565
SWISSCUBE 19 Jan 03:13:29 03:16:52 19° 267° (W) 03:20:16 437.505
Oscar 19 19 Jan 03:15:38 03:19:11 19° 299° (WNW) 03:22:43 437.125/150
Gurwin Techsat 1B 19 Jan 03:15:50 03:20:33 33° 294° (WNW) 03:25:16 435.225
MOZHAYETS 4 19 Jan 03:20:18 03:24:46 56° 259° (W) 03:29:19
STARS 19 Jan 03:33:29 03:37:22 32° 68° (ENE) 03:41:15 437.465
Cosmos 2491 19 Jan 03:41:29 03:49:34 42° 288° (WNW) 03:57:45 435.465 / 435.565
PHONESAT 2.4 19 Jan 03:46:18 03:48:25 32° 169° (S) 03:50:32 2401.200-2431.200
DANDE 19 Jan 03:49:01 03:52:06 24° 85° (E) 03:55:58 436.750
ISS 19 Jan 03:50:43 03:53:36 28° 20° (NNE) 03:56:29 145.825
RS-15 19 Jan 03:51:17 04:01:22 28° 346° (NNW) 04:11:33 29.354- 29.394
ITAMSAT 1 19 Jan 03:53:39 03:58:50 68° 287° (WNW) 04:04:00 435.822/435.867
BRITE-PL 19 Jan 03:54:09 03:55:31 11° 85° (E) 03:56:53 437.365/2234.400
M-CUBED/EXP-1 PRIME 19 Jan 03:59:59 04:03:44 27° 258° (WSW) 04:07:19 437.505
CUBESAT XI-V 19 Jan 04:01:28 04:06:05 61° 74° (ENE) 04:10:46 437.345
AIST 2 19 Jan 04:08:55 04:12:53 36° 49° (NE) 04:16:48 435.215
KKS-1 19 Jan 04:11:45 04:16:01 46° 260° (W) 04:20:19 437.445
AUBIESAT-1 19 Jan 04:40:05 04:42:01 13° 263° (W) 04:43:54 437.475
AO-7 19 Jan 04:52:33 05:00:44 60° 295° (WNW) 05:08:51 29.400- 29.500
CUSAT 1 19 Jan 04:55:56 05:00:10 24° 298° (WNW) 05:05:17 437.405
STARS 19 Jan 05:10:08 05:13:44 24° 265° (W) 05:17:20 437.465
HORYU 2 19 Jan 05:11:42 05:15:37 29° 96° (E) 05:19:31 437.375
STRAND 1 19 Jan 05:12:03 05:14:29 14° 58° (ENE) 05:16:57 437.568
PHONESAT 2.4 19 Jan 05:20:08 05:22:20 39° 185° (S) 05:24:32 2401.200-2431.200
ISS 19 Jan 05:27:03 05:30:14 53° 218° (SW) 05:33:25 145.825
BRITE-PL 19 Jan 05:29:45 05:34:47 79° 285° (WNW) 05:39:21 437.365/2234.400
DANDE 19 Jan 05:31:24 05:34:42 26° 294° (WNW) 05:38:53 436.750
Cubesat XI-IV 19 Jan 05:36:05 05:40:03 21° 93° (E) 05:43:59 437.490
O/OREOS (USA 219) 19 Jan 05:36:05 05:38:21 14° 99° (E) 05:40:37 437.305
Cosmos 2499 19 Jan 05:37:56 05:43:16 22° 65° (ENE) 05:48:30 435.465 / 435.565
CUBESAT XI-V 19 Jan 05:41:19 05:43:53 14° 270° (W) 05:46:28 437.345
GOMX 1 19 Jan 05:41:37 05:46:01 53° 99° (E) 05:50:10 467.674
GONETS M04 19 Jan 05:42:37 05:49:28 24° 63° (ENE) 05:56:17
AIST 2 19 Jan 05:47:42 05:51:11 25° 247° (WSW) 05:54:39 435.215
NOAA 15 19 Jan 05:50:05 05:54:42 29° 95° (E) 05:59:16 137.62
RS-15 19 Jan 06:08:33 06:19:09 31° 21° (NNE) 06:29:35 29.354- 29.394
HO-68 19 Jan 06:12:30 06:13:27 10° 85° (E) 06:14:23 435.675
DOVE 4 19 Jan 06:28:12 06:32:25 64° 102° (ESE) 06:36:30 437.250
CINEMA 3 19 Jan 06:31:23 06:33:54 15° 92° (E) 06:36:26 145.822/145.860
CUTE-I 19 Jan 06:32:21 06:37:41 68° 102° (ESE) 06:43:00 437.470
CUTE 1.7 + AOD 2 19 Jan 06:41:23 06:42:40 11° 89° (E) 06:43:56 437.475
LilacSat-2 19 Jan 06:43:45 06:47:35 65° 285° (WNW) 06:51:25 437.200
AO-7 19 Jan 06:47:30 06:51:48 15° 317° (NW) 06:56:06 29.400- 29.500
STRAND 1 19 Jan 06:47:52 06:52:57 85° 255° (WSW) 06:58:05 437.568
HORYU 2 19 Jan 06:48:19 06:52:05 28° 293° (WNW) 06:55:51 437.375
PHONESAT 2.4 19 Jan 06:54:35 06:56:09 16° 201° (SSW) 06:57:42 2401.200-2431.200
NOAA 18 19 Jan 07:07:35 07:13:03 74° 103° (ESE) 07:18:30 137.9125
CANX-2 19 Jan 07:08:19 07:11:58 26° 95° (E) 07:15:35 2200.000
BRITE-PL 19 Jan 07:11:43 07:12:14 10° 304° (NW) 07:12:44 437.365/2234.400
O/OREOS (USA 219) 19 Jan 07:12:48 07:17:13 59° 296° (WNW) 07:21:39 437.305
Cubesat XI-IV 19 Jan 07:15:14 07:20:25 53° 289° (WNW) 07:25:35 437.490
GOMX 1 19 Jan 07:20:58 07:23:37 16° 298° (WNW) 07:26:11 467.674
SEEDS 19 Jan 07:22:41 07:25:59 22° 93° (E) 07:29:16 437.485
NOAA 15 19 Jan 07:29:39 07:34:32 38° 293° (WNW) 07:39:23 137.62
Cosmos 2499 19 Jan 07:30:01 07:37:08 69° 266° (W) 07:44:07 435.465 / 435.565
COMPASS 1 19 Jan 07:31:10 07:34:02 18° 92° (E) 07:36:52 437.405
CUBEBUG 2 19 Jan 07:35:17 07:38:24 19° 93° (E) 07:41:33 437.445
GONETS M04 19 Jan 07:38:28 07:47:18 79° 265° (W) 07:56:08
AAUSAT CUBESAT 2 19 Jan 07:43:51 07:46:48 18° 92° (E) 07:49:44 437.432
PCSat 19 Jan 07:54:49 07:56:09 11° 31° (NNE) 07:57:29 145.827
HO-68 19 Jan 07:55:19 08:02:29 66° 103° (ESE) 08:09:35 435.675
SO-50 19 Jan 07:59:15 08:03:43 43° 117° (ESE) 08:08:08 436.795
UWE-3 19 Jan 08:06:16 08:09:56 26° 95° (E) 08:13:40 435.000/436.395/437.385
FUNcube-1 19 Jan 08:06:51 08:09:22 15° 91° (E) 08:11:54 145.935
CINEMA 3 19 Jan 08:07:18 08:11:17 45° 287° (WNW) 08:15:21 145.822/145.860
DOVE 4 19 Jan 08:07:53 08:09:33 12° 299° (WNW) 08:11:11 437.250
CUTE-I 19 Jan 08:13:41 08:17:11 18° 300° (WNW) 08:20:41 437.470
CUTE 1.7 + AOD 2 19 Jan 08:14:39 08:18:57 68° 285° (WNW) 08:23:11 437.475
PRISM 19 Jan 08:17:42 08:21:41 45° 71° (ENE) 08:25:40 437.425
UNISAT 6 19 Jan 08:18:18 08:20:35 14° 63° (ENE) 08:22:52 437.425
RS-15 19 Jan 08:22:03 08:34:28 70° 51° (NE) 08:46:24 29.354- 29.394
ZACube-1 19 Jan 08:28:09 08:31:53 27° 95° (E) 08:35:41 437.345
TIGRISAT 19 Jan 08:31:23 08:34:16 18° 65° (ENE) 08:37:09 435.000
CANX-2 19 Jan 08:44:03 08:47:46 29° 291° (WNW) 08:51:28 2200.000
ANTELSAT 19 Jan 08:45:28 08:49:02 26° 68° (ENE) 08:52:35 437.575/2403.000
NOAA 18 19 Jan 08:49:39 08:53:06 17° 301° (WNW) 08:56:32 137.9125
SEEDS 19 Jan 08:57:53 09:01:45 34° 290° (WNW) 09:05:34 437.485
COMPASS 1 19 Jan 09:05:47 09:09:45 41° 289° (WNW) 09:13:41 437.405
Oscar 11 19 Jan 09:06:47 09:11:06 59° 100° (E) 09:15:23 145.826/435.025
CUBEBUG 2 19 Jan 09:11:07 09:15:09 40° 289° (WNW) 09:19:17 437.445
DELFI C3 19 Jan 09:12:40 09:15:49 22° 94° (E) 09:18:56 145.870
AAUSAT CUBESAT 2 19 Jan 09:18:31 09:22:25 38° 289° (WNW) 09:26:17 437.432
JAS-2 19 Jan 09:31:19 09:35:57 31° 64° (ENE) 09:40:58 435.910
PCSat 19 Jan 09:35:45 09:41:00 46° 53° (NE) 09:46:11 145.827
GONETS M04 19 Jan 09:37:55 09:42:36 16° 285° (WNW) 09:47:18
SO-50 19 Jan 09:40:17 09:44:20 28° 316° (NW) 09:48:19 436.795
FUNcube-1 19 Jan 09:41:38 09:45:53 53° 287° (WNW) 09:50:12 145.935
UWE-3 19 Jan 09:42:35 09:46:22 30° 291° (WNW) 09:50:14 435.000/436.395/437.385
HO-68 19 Jan 09:43:53 09:49:39 27° 302° (WNW) 09:55:23 435.675
UNISAT 6 19 Jan 09:52:39 09:56:50 56° 260° (W) 10:01:03 437.425
PRISM 19 Jan 09:54:36 09:57:11 16° 268° (W) 09:59:47 437.425
QB50P1 19 Jan 10:01:30 10:04:21 18° 65° (ENE) 10:07:14 145.935-145.965
ZACube-1 19 Jan 10:04:21 10:08:07 29° 291° (WNW) 10:11:57 437.345
POLYITAN 1 19 Jan 10:05:02 10:08:04 20° 65° (ENE) 10:11:06 437.675
QB50P2 19 Jan 10:06:02 10:09:14 21° 66° (ENE) 10:12:27 145.880/145.840
TIGRISAT 19 Jan 10:06:36 10:10:39 42° 261° (W) 10:14:43 435.000
BY70-1 19 Jan 10:14:30 10:15:39 11° 90° (E) 10:16:47 436.1900
ANTELSAT 19 Jan 10:22:01 10:25:40 28° 264° (W) 10:29:20 437.575/2403.000
HUMSAT D 19 Jan 10:26:11 10:30:30 84° 106° (ESE) 10:34:48 437.325/437.525
POPSAT HIP 1 19 Jan 10:27:15 10:31:00 32° 69° (ENE) 10:34:43 437.405
RS-15 19 Jan 10:35:24 10:46:10 38° 254° (WSW) 10:56:35 29.354- 29.394
DUCHIFAT 1 19 Jan 10:39:31 10:43:23 37° 71° (ENE) 10:47:15 145.980
NANOSAT C BR1 19 Jan 10:44:13 10:48:13 46° 72° (ENE) 10:52:15 145.865
Oscar 11 19 Jan 10:44:21 10:46:44 15° 297° (WNW) 10:49:09 145.826/435.025
DELFI C3 19 Jan 10:47:09 10:50:38 29° 290° (WNW) 10:54:06 145.870
ESTCUBE 1 19 Jan 10:58:26 11:02:10 25° 94° (E) 11:05:51 437.505/2401.250
JAS-2 19 Jan 11:16:05 11:20:56 36° 265° (W) 11:26:14 435.910
VELOX 1 19 Jan 11:16:23 11:18:30 13° 90° (E) 11:20:38 145.980
Oscar 19 19 Jan 11:16:51 11:19:25 14° 58° (ENE) 11:22:00 437.125/150
BUGSAT 1 19 Jan 11:19:20 11:23:04 37° 71° (ENE) 11:26:48 437.445
PCSat 19 Jan 11:19:36 11:24:08 28° 251° (WSW) 11:28:39 145.827
QB50P1 19 Jan 11:35:50 11:39:49 42° 261° (W) 11:43:49 145.935-145.965
POLYITAN 1 19 Jan 11:39:43 11:43:36 37° 262° (W) 11:47:32 437.675
QB50P2 19 Jan 11:40:59 11:44:50 34° 263° (W) 11:48:41 145.880/145.840
BY70-1 19 Jan 11:43:04 11:46:15 39° 288° (WNW) 11:49:16 436.1900
50 SAT 19 Jan 11:44:11 11:46:38 17° 94° (E) 11:49:02 437.505
DX 1 19 Jan 11:52:11 11:54:46 15° 92° (E) 11:57:19 434.975-435.025
SPROUT 19 Jan 11:53:05 11:56:35 24° 95° (E) 12:00:04 437.525
Cosmos 2491 19 Jan 11:53:51 12:00:36 24° 63° (ENE) 12:07:20 435.465 / 435.565
UKube-1 19 Jan 11:54:42 11:56:09 11° 90° (E) 11:57:36 .
POPSAT HIP 1 19 Jan 12:03:31 12:06:48 22° 266° (W) 12:10:06 437.405
CUBEBUG 1 19 Jan 12:04:17 12:08:37 72° 102° (ESE) 12:12:54 437.445
HUMSAT D 19 Jan 12:04:44 12:05:26 10° 300° (WNW) 12:06:09 437.325/437.525
CUSAT 1 19 Jan 12:05:24 12:07:40 11° 52° (NE) 12:09:55 437.405
AO-7 19 Jan 12:14:02 12:17:06 12° 40° (NE) 12:20:09 29.400- 29.500
DUCHIFAT 1 19 Jan 12:16:14 12:19:11 19° 267° (W) 12:22:10 145.980
AISAT 19 Jan 12:17:29 12:21:52 64° 102° (ESE) 12:26:11 437.250
NANOSAT C BR1 19 Jan 12:21:42 12:24:12 15° 268° (W) 12:26:41 145.865
ESTCUBE 1 19 Jan 12:34:55 12:39:00 34° 291° (WNW) 12:43:03 437.505/2401.250
VELOX 1 19 Jan 12:51:00 12:55:21 59° 287° (WNW) 12:59:39 145.980
Oscar 19 19 Jan 12:52:48 12:58:00 86° 258° (WSW) 13:03:15 437.125/150
BUGSAT 1 19 Jan 12:55:45 12:58:33 18° 267° (W) 13:01:22 437.445
Gurwin Techsat 1B 19 Jan 12:57:41 13:02:52 58° 72° (ENE) 13:08:06 435.225
50 SAT 19 Jan 13:16:46 13:19:53 29° 290° (WNW) 13:22:59 437.505
TISAT 1 19 Jan 13:24:53 13:28:44 35° 98° (E) 13:32:33 437.305
DX 1 19 Jan 13:27:02 13:31:14 50° 289° (WNW) 13:35:24 434.975-435.025
UKube-1 19 Jan 13:28:20 13:32:37 66° 286° (WNW) 13:36:53 .
SPROUT 19 Jan 13:28:47 13:32:30 30° 291° (WNW) 13:36:13 437.525
ITAMSAT 1 19 Jan 13:34:15 13:38:33 27° 64° (ENE) 13:42:51 435.822/435.867
SWISSCUBE 19 Jan 13:35:59 13:37:15 11° 88° (E) 13:38:29 437.505
CUBEBUG 1 19 Jan 13:42:37 13:44:18 12° 299° (WNW) 13:45:58 437.445
AO-85 19 Jan 13:42:41 13:46:56 33° 116° (ESE) 13:50:54 145.980
CUSAT 1 19 Jan 13:43:50 13:51:35 50° 73° (ENE) 13:58:53 437.405
Cosmos 2491 19 Jan 13:49:40 13:58:28 80° 266° (W) 14:07:16 435.465 / 435.565
AIST 1 19 Jan 13:55:15 13:59:30 52° 94° (E) 14:03:45
AISAT 19 Jan 13:55:34 13:57:47 14° 299° (WNW) 14:00:00 437.250
YUBILEINY 19 Jan 13:57:04 14:05:27 51° 89° (E) 14:13:53 435.215
Cosmos 2504 19 Jan 13:59:21 14:06:25 29° 83° (E) 14:13:09 435.465 / 435.565
AO-7 19 Jan 13:59:57 14:07:52 49° 62° (ENE) 14:15:49 29.400- 29.500
DANDE 19 Jan 14:22:07 14:29:10 39° 71° (ENE) 14:36:49 436.750
